View from above orbital plane
|
View from above satellite
|
Ground track
|
The orbit data is extracted from the following two-line orbital elements,
1 32791U 08021J 22136.46522770 .00004242 00000-0 41837-3 0 9998
2 32791 97.6092 113.8645 0011241 301.2855 58.7263 14.92475735762506
Epoch (UTC): | 16 May 2022 11:09:55 |
Eccentricity: | 0.0011241 |
inclination: | 97.6092° |
perigee height: | 582 km |
apogee height: | 598 km |
right ascension of ascending node: | 113.8645° |
argument of perigee: | 301.2855° |
revolutions per day: | 14.92475735 |
mean anomaly at epoch: | 58.7263° |
orbit number at epoch: | 76250 |
The dashed part of the orbit path shows where the satellite is in the earth's shadow,
|
|